Elizabeth City, NC

12:48 AM EDT on October 17, 2017 (GMT -0400)
Elizabeth City Cgas-Regional

Weather History for KECG - July, 2013

Change the Weather History Date:

Tuesday, July 23, 2013

  Actual Average Record
Temperature  
Mean Temperature 82 °F 79 °F  
Max Temperature 87 °F 88 °F 104 °F (1952)
Min Temperature 76 °F 70 °F 56 °F (1974)
Degree Days  
Heating Degree Days 0 0  
Month to date heating degree days 0 0  
Since 1 June heating degree days 0 3  
Since 1 July heating degree days 0 0  
Cooling Degree Days 17 14  
Month to date cooling degree days 370 317  
Year to date cooling degree days 924 795  
Since 1 June cooling degree days 718 631  
Growing Degree Days 32 (Base 50)    
Moisture  
Dew Point 74 °F    
Average Humidity 79    
Maximum Humidity 94    
Minimum Humidity 63    
Precipitation  
Precipitation 0.00 in 0.20 in 2.13 in (2006)
Month to date precipitation 3.29 4.11  
Year to date precipitation 20.58 25.77  
Snow  
Snow 0.00 in - 0.00 in (2002)
Month to date snowfall 0.0  
Since 1 July snowfall 0.0  
Snow Depth 0.00 in    
Sea Level Pressure  
Sea Level Pressure 29.77 in    
Wind  
Wind Speed 11 mph (SW)    
Max Wind Speed 20 mph    
Max Gust Speed 25 mph    
Visibility 10 miles    
Events      
T = Trace of Precipitation, MM = Missing Value Source: NWS Daily Summary

Daily Weather History Graph

Daily Weather History Graph

Search for Another Location

Airport or City:

Trip Planner

Search our weather history database for the weather conditions in past years. The results will help you decide how hot, cold, wet, or windy it might be!

Date:

Astronomy

Jul. 23, 2013 Rise Set
Actual Time 6:04 AM EDT 8:17 PM EDT
Civil Twilight 5:35 AM EDT 8:46 PM EDT
Nautical Twilight 5:00 AM EDT 9:21 PM EDT
Astronomical Twilight 4:21 AM EDT 10:00 PM EDT
Moon 8:48 PM EDT (7/23) 7:06 AM EDT (7/23)
Length of Visible Light 15h 10m
Length of Day
14h 12m
Full, 99% of the Moon is Illuminated
Jul 23
Full
Jul 29
Last Quarter
Aug 6
New
Aug 14
First Quarter
Aug 20
Full

Hourly Weather History & Observations

Time (EDT) Temp. Heat Index Dew Point Humidity Pressure Visibility Wind Dir Wind Speed Gust Speed Precip Events Conditions
12:54 AM 79.0 °F - 75.9 °F 90% 29.83 in 10.0 mi SSW 8.1 mph - N/A   Mostly Cloudy
1:54 AM 78.1 °F - 75.9 °F 93% 29.82 in 10.0 mi SW 10.4 mph - N/A   Clear
2:54 AM 78.1 °F - 75.0 °F 90% 29.81 in 10.0 mi SW 11.5 mph - N/A   Clear
3:54 AM 77.0 °F - 75.0 °F 94% 29.80 in 10.0 mi SW 9.2 mph - N/A   Clear
4:54 AM 77.0 °F - 73.9 °F 90% 29.78 in 10.0 mi SW 8.1 mph - N/A   Clear
5:54 AM 77.0 °F - 73.9 °F 90% 29.79 in 10.0 mi SSW 9.2 mph - N/A   Clear
6:54 AM 77.0 °F - 73.9 °F 90% 29.80 in 10.0 mi SSW 8.1 mph - N/A   Clear
7:54 AM 79.0 °F - 75.0 °F 88% 29.80 in 10.0 mi SW 13.8 mph - N/A   Clear
8:38 AM 78.8 °F - 75.2 °F 89% 29.80 in 10.0 mi SW 13.8 mph 21.9 mph N/A   Mostly Cloudy
8:54 AM 79.0 °F - 73.9 °F 84% 29.80 in 10.0 mi SW 12.7 mph 18.4 mph N/A   Overcast
9:54 AM 79.0 °F - 73.9 °F 84% 29.80 in 10.0 mi SW 11.5 mph - N/A   Overcast
10:38 AM 82.4 °F 88.2 °F 73.4 °F 74% 29.78 in 10.0 mi SW 16.1 mph 20.7 mph N/A   Mostly Cloudy
10:54 AM 81.0 °F 85.8 °F 73.0 °F 77% 29.78 in 10.0 mi SSW 16.1 mph 23.0 mph N/A   Mostly Cloudy
11:21 AM 82.4 °F 88.2 °F 73.4 °F 74% 29.78 in 10.0 mi SW 15.0 mph - N/A   Overcast
11:54 AM 82.9 °F 89.4 °F 73.9 °F 74% 29.77 in 10.0 mi SW 17.3 mph 25.3 mph N/A   Mostly Cloudy
12:54 PM 82.9 °F 89.4 °F 73.9 °F 74% 29.75 in 10.0 mi SW 12.7 mph - N/A   Mostly Cloudy
1:54 PM 86.0 °F 93.8 °F 73.9 °F 67% 29.75 in 10.0 mi WSW 15.0 mph - N/A   Mostly Cloudy
2:54 PM 84.9 °F 92.1 °F 73.9 °F 69% 29.74 in 10.0 mi SW 15.0 mph - N/A   Mostly Cloudy
3:54 PM 86.0 °F 93.8 °F 73.9 °F 67% 29.72 in 10.0 mi SSW 12.7 mph - N/A   Mostly Cloudy
4:54 PM 87.1 °F 95.4 °F 73.9 °F 65% 29.70 in 10.0 mi SW 12.7 mph - N/A   Clear
5:54 PM 86.0 °F 93.8 °F 73.9 °F 67% 29.70 in 10.0 mi SW 9.2 mph - N/A   Scattered Clouds
6:54 PM 84.9 °F 91.4 °F 73.0 °F 67% 29.71 in 10.0 mi SW 6.9 mph - N/A   Partly Cloudy
7:54 PM 82.0 °F 87.4 °F 73.0 °F 74% 29.71 in 10.0 mi WSW 5.8 mph - N/A   Clear
8:54 PM 79.0 °F - 73.9 °F 84% 29.72 in 10.0 mi SW 6.9 mph - N/A   Clear
9:54 PM 79.0 °F - 73.9 °F 84% 29.74 in 10.0 mi SW 8.1 mph - N/A   Clear
10:54 PM 79.0 °F - 73.9 °F 84% 29.76 in 10.0 mi SW 6.9 mph - N/A   Clear
11:54 PM 78.1 °F - 73.9 °F 87% 29.77 in 10.0 mi SW 8.1 mph - N/A   Clear